Terminal Aerodrome Forecast
Issued by NWS Salt Lake City, UT

Home | Current Version | Previous Version | Text Only | Print | Product List | Glossary On
Versions: 1 2 3 4 5 6 7 8 9 10 11 12 13
000
FTUS45 KSLC 181120
TAFCDC
TAF
KCDC 181120Z 1812/1912 VRB05KT P6SM SCT250
     FM181700 23011KT P6SM BKN250
     FM190300 16006KT P6SM BKN180=

USA.gov is the U.S. government's official web portal to all federal, state and local government web resources and services.